INTELSAT 28 (IS-28)

Last updated on Wed Jul 02 2025 00:02:45 GMT+0000 (Coordinated Universal Time)

1 37392U 11016A 25182.48100422 -.00000222 00000+0 00000+0 0 9997 2 37392 0.8991 87.3165 0004232 5.2501 328.6587 1.00273405 49764
UTC large
Height (km)
Speed (km/s)
/
Latitude / Longitude
Inclination (degrees)
Orbital Period (minutes)
Azimuth
Elevation
Range (km)
Doppler Factor

Next 0 passes for location: London (51.5072 / 0.1276)

Sorry there are no passes over London.